Weather Roundup
Issued by NWS

Home | Current Version | Previous Version | Graphics & Text | Print | Product List | Glossary Off
Versions: 1 2 3 4 5 6 7 8 9 10 11 12 13 14 15 16 17 18 19 20 21 22 23 24 25 26 27 28 29 30 31 32 33 34 35 36 37 38 39 40 41 42 43 44 45 46 47 48 49 50

392
NZUS93 KARX 221310
HRRWXR

CURRENT HOURLY OBSERVATIONS ACROSS
MUCH OF THE UPPER MISSISSIPPI VALLEY
NATIONAL WEATHER SERVICE LA CROSSE WI
800 AM CDT THU JUN 22 2017


...SOUTHEAST MINNESOTA...


CITY           SKY/WX    TMP DP  RH WIND       PRES   REMARKS
ROCHESTER      CLOUDY    73  65  75 S10       29.70F
ROCHESTER/MAYO CLOUDY    73  64  73 S7        29.70F
WINONA         PTSUNNY   73  63  68 SW6       29.68F
AUSTIN         CLOUDY    72  64  78 S13       29.71F
ALBERT LEA     CLOUDY    72  64  78 S12       29.69F
DODGE CENTER   CLOUDY    72  64  78 NW7       29.71F
PRESTON        MOSUNNY   72  64  75 S10       29.72F
OWATONNA       CLOUDY    70  66  88 CALM      29.70F
FARIBAULT      CLOUDY    70  68  94 E6        29.69
$$

...ELSEWHERE IN MINNESOTA...


CITY           SKY/WX    TMP DP  RH WIND       PRES   REMARKS
MINNEAPOLIS    CLOUDY    70  64  81 E6        29.72R
INTNL FALLS    SUNNY     61  53  75 W7        29.67R
DULUTH         CLOUDY    61  54  77 NW6       29.70S
RED WING       CLOUDY    70  66  88 CALM      29.72R
REDWOOD FALLS  LGT RAIN  69  66  90 N7        29.69R
MANKATO        CLOUDY    71  69  93 N7        29.68F
WORTHINGTON    CLOUDY    70  66  88 NW12      29.75R THUNDER
FAIRMONT       CLOUDY    72  66  81 E5        29.66F
$$

...SOUTHWEST WISCONSIN...


CITY           SKY/WX    TMP DP  RH WIND       PRES   REMARKS
LA CROSSE      CLOUDY    74  68  81 S7        29.69F
PRAIRIE DU CHI DRIZZLE   70  61  73 S13G20    29.72F
BOSCOBEL       CLOUDY    70  65  84 S6        29.72F
LONE ROCK      CLOUDY    69  66  90 VRB3      29.74R FOG
PLATTEVILLE    CLOUDY    72  67  84 SW5       29.80R
FORT MC COY    CLOUDY    69  68  95 CALM      29.73S
CAMP DOUGLAS   CLOUDY    70  68  94 S3        29.74R
MAUSTON-NEW LI CLOUDY    69  68  95 S5        29.74S
VIROQUA        FAIR      71  65  80 SW14      29.75S
WIS DELLS      CLOUDY    68  66  93 SE6       29.75F
$$

...ELSEWHERE IN WISCONSIN...


CITY           SKY/WX    TMP DP  RH WIND       PRES   REMARKS
MILWAUKEE      CLOUDY    75  67  76 SW6       29.81F
MADISON        LGT RAIN  71  67  87 S8        29.74F
GREEN BAY      CLOUDY    70  68  93 SW9       29.73F
EAU CLAIRE     CLOUDY    68  64  87 S5        29.71S
BLACK RVR FLS  CLOUDY    71  71  99 CALM      29.71F
MEDFORD        CLOUDY    66  64  91 W6        29.74S
WAUSAU         PTSUNNY   68  64  87 VRB3      29.72R
WIS RAPIDS     LGT RAIN  71  69  93 SW7       29.75S
MARSHFIELD     CLOUDY    69  65  86 SW7       29.73R
RICE LAKE      RAIN      64  61  92 CALM      29.73F
$$

...NORTHEAST IOWA...


CITY           SKY/WX    TMP DP  RH WIND       PRES   REMARKS
WATERLOO       CLOUDY    71  64  78 SE10      29.69F
DUBUQUE        CLOUDY    72  64  76 SW8       29.82S
DECORAH        CLOUDY    70  64  83 S14G22    29.73R
MASON CITY     CLOUDY    69  64  84 S14       29.73R THUNDER
CHARLES CITY   HVY RAIN  68  68 100 SW10G21   29.77R VSB 1/2
OELWEIN        CLOUDY    70  68  94 SE20G26   29.73F
$$

...ELSEWHERE IN IOWA...


CITY           SKY/WX    TMP DP  RH WIND       PRES   REMARKS
DES MOINES     PTSUNNY   76  62  62 S13       29.71F
IOWA CITY      CLOUDY    77  67  71 S8        29.78F
FORT DODGE     CLOUDY    75  57  53 N9        29.72R
MARSHALLTOWN   CLOUDY    74  63  68 SE10      29.70F
CEDAR RAPIDS   MOSUNNY   73  68  84 SE5       29.78R
$$

...NORTHERN ILLINOIS...


CITY           SKY/WX    TMP DP  RH WIND       PRES   REMARKS
CHICAGO-OHARE  CLOUDY    78  66  66 SW10      29.87R
CHICAGO-MIDWAY CLOUDY    77  67  71 SW9       29.89R
MOLINE         MOSUNNY   76  66  71 E5        29.81F
ROCKFORD       CLOUDY    75  67  76 S8        29.85F
PEORIA         CLOUDY    76  70  82 S14       29.87S
$$

NOTE: "FAIR" INDICATES FEW OR NO CLOUDS BELOW 12,000 FEET WITH NO
SIGNIFICANT WEATHER AND/OR OBSTRUCTIONS TO VISIBILITY. WIND
SPEEDS ARE IN MILES-PER-HOUR.




USA.gov is the U.S. government's official web portal to all federal, state and local government web resources and services.